Regional Weather Roundup
Issued by NWS

Home | Current Version | Previous Version | Graphics & Text | Print | Product List | Glossary On
Versions: 1 2 3 4 5 6 7 8 9 10 11 12 13 14 15 16 17 18 19 20 21 22 23 24 25 26 27 28
000
ASUS45 KBOI 281710
RWRID

IDAHO REGIONAL WEATHER ROUNDUP
NATIONAL WEATHER SERVICE BOISE ID
1100 AM MDT WED JUN 28 2017

NOTE: "FAIR" INDICATES FEW OR NO CLOUDS BELOW 12000 FEET
WITH NO SIGNIFICANT WEATHER AND/OR OBSTRUCTIONS TO VISIBILITY

IDZ012-014-281800-
SOUTHWEST IDAHO


CITY           SKY/WX    TMP DP  RH WIND       PRES   REMARKS
BOISE          SUNNY     74  37  26 N13       29.89S
CALDWELL       SUNNY     75  40  28 NW8       29.88S
MOUNTAIN HOME  SUNNY     78  37  22 N9        29.88F
$$

IDZ016-017-281800-
SOUTHCENTRAL IDAHO


CITY           SKY/WX    TMP DP  RH WIND       PRES   REMARKS
BURLEY         SUNNY     70  50  49 VRB5      29.92S
JEROME         SUNNY     69  53  56 S7        29.93R
TWIN FALLS     SUNNY     72  49  44 W10       29.93S
$$

IDZ019>023-281800-
SOUTHEAST IDAHO


CITY           SKY/WX    TMP DP  RH WIND       PRES   REMARKS
IDAHO FALLS    MOSUNNY   61  55  81 N7        29.97F
POCATELLO      MOSUNNY   72  49  44 N9        29.94R
REXBURG        LGT RAIN  57  52  83 CALM      29.98R
$$

IDZ006-010-011-018-031-032-281800-
CENTRAL IDAHO MOUNTAINS


CITY           SKY/WX    TMP DP  RH WIND       PRES   REMARKS
MCCALL         SUNNY     66  39  37 VRB7      29.93S
HAILEY         MOSUNNY   64  46  52 NW5       29.98F
STANLEY          N/A     61  48  62 CALM      30.01F
SALMON         PTSUNNY   64  48  55 N7        29.87F
CHALLIS        SUNNY     67  43  41 S12       29.93F
$$

IDZ002-004-006-007-026-281800-
NORTHERN IDAHO


CITY           SKY/WX    TMP DP  RH WIND       PRES   REMARKS
LEWISTON       SUNNY     71  47  42 NW3       29.86R
LOWELL           N/A     71  49  45 CALM      29.83F
COEUR D`ALENE  SUNNY     67  47  48 SW5       29.87S
MULLAN PASS    SUNNY     56  39  53 VRB5      29.95S
$$




USA.gov is the U.S. government's official web portal to all federal, state and local government web resources and services.